Wind_Speed
14 16 18 19 21 21 22 22 24 23 23 23 23 21 20 18 17 15 15 13 13 11 10 9 7 6 4 3 2 1 1 2 3 4 5 7 8 10 11 11 12 13 13 13
13 16 17 18 20 22 23 22 22 22 23 23 22 21 20 20 18 16 15 14 13 12 11 10 9 7 5 4 3 2 2 2 3 3 5 6 8 9 10 11 12 13 13 14
11 13 15 17 19 22 23 22 21 22 23 22 21 20 21 20 19 17 16 15 13 13 12 11 10 8 7 6 4 3 2 2 2 3 4 6 7 8 9 11 11 12 13 14
10 12 13 16 18 20 21 22 22 22 22 22 21 20 20 20 18 17 16 15 14 13 12 12 10 9 8 6 5 4 4 3 3 3 4 5 6 8 9 10 11 12 13 13
8 9 12 14 15 18 20 21 21 22 21 22 21 20 19 20 19 17 16 15 14 14 12 12 11 10 9 7 6 6 5 4 3 3 3 4 5 7 8 9 10 11 12 13
6 8 10 13 15 16 18 19 18 20 20 20 20 19 19 18 18 17 17 16 15 14 13 13 12 11 10 9 8 7 6 4 3 2 2 3 4 6 7 8 9 10 11 13
5 6 8 11 13 15 16 17 17 18 19 18 18 19 18 16 17 16 16 16 15 15 14 13 12 12 11 10 9 8 7 5 4 3 2 2 3 4 5 6 7 9 10 11
5 5 7 9 11 13 14 15 16 15 15 14 17 18 18 17 16 16 16 16 17 16 14 14 14 13 12 11 10 9 7 6 5 4 3 2 2 3 4 5 6 7 8 10
4 5 7 9 10 12 13 13 15 14 13 12 14 16 17 18 16 17 16 16 16 16 16 15 14 14 13 12 11 10 9 7 6 5 4 3 1 1 2 3 4 6 7 8
5 4 6 8 11 12 13 14 13 13 13 13 13 13 15 16 17 17 17 16 15 16 16 15 15 15 15 14 12 11 10 8 7 6 5 4 2 1 1 2 3 4 5 7
6 5 6 7 9 11 13 14 14 13 13 13 13 13 13 13 15 16 17 16 16 16 16 15 15 15 15 14 13 12 11 10 8 7 6 5 4 2 1 2 3 4 4 5
7 6 6 7 9 10 12 14 15 14 12 10 11 12 13 13 14 15 15 15 16 16 16 16 15 15 15 15 14 13 12 11 10 9 7 6 6 4 3 2 3 3 4 5
8 8 7 8 8 8 10 12 14 14 13 12 9 9 11 13 14 14 15 15 16 16 16 16 16 16 16 16 15 14 13 12 11 10 9 8 7 6 5 4 4 4 4 5
8 9 8 6 7 8 10 11 13 13 12 11 10 8 10 12 13 15 15 16 17 17 16 16 16 16 17 16 15 15 14 13 12 11 10 10 9 8 7 6 5 5 5 5
8 10 9 8 8 8 10 11 12 12 12 12 11 11 10 12 13 14 16 16 16 16 16 16 16 16 17 17 16 15 14 14 13 12 12 11 10 10 9 8 7 6 6 6
8 9 10 8 9 10 11 11 12 12 13 13 12 12 13 14 14 15 15 15 16 16 16 16 16 16 17 17 16 15 15 14 14 13 12 12 12 11 10 9 8 8 8 8
9 9 9 9 9 10 10 11 12 14 14 14 14 14 15 15 16 15 15 15 15 16 16 16 17 17 17 17 17 16 15 15 15 14 14 13 13 12 11 11 10 10 10 10
11 11 10 9 9 10 9 11 12 14 14 15 15 16 16 16 16 15 15 15 15 16 16 16 17 17 17 17 17 16 16 16 16 15 14 14 14 13 13 12 12 12 12 12
12 12 11 10 9 9 10 11 12 13 14 15 16 16 16 16 16 16 17 17 16 17 17 17 17 17 18 18 17 17 16 16 16 16 15 15 15 15 14 14 14 14 13 14
14 14 13 13 12 11 11 12 12 13 14 15 15 16 16 16 16 16 17 17 16 17 17 17 17 17 17 18 18 17 17 17 17 17 16 16 16 16 16 16 16 16 16 15
15 15 15 14 14 14 15 13 14 15 15 15 15 16 15 16 16 17 16 16 17 16 16 17 17 17 18 19 18 18 18 18 18 18 18 18 17 17 17 17 17 18 18 18
16 15 15 15 15 17 16 15 16 16 16 15 16 16 17 16 17 17 17 17 17 17 17 17 17 18 18 19 19 19 19 19 19 19 19 19 19 19 19 19 19 20 20 20
19 18 17 17 18 17 17 17 17 17 17 17 17 17 18 17 17 18 18 18 18 18 18 18 19 19 20 20 20 20 20 20 21 21 21 21 21 21 21 21 21 22 22 23
20 20 20 20 20 20 20 20 19 19 18 19 19 19 19 18 18 18 19 19 19 19 19 20 21 21 22 22 22 23 22 22 23 23 23 23 23 23 23 23 24 24 25 25
23 23 23 22 22 23 22 21 21 20 20 21 20 20 20 20 20 20 19 19 20 21 21 22 22 22 23 24 25 25 24 24 25 25 25 25 25 25 25 26 26 27 27 28
26 26 25 25 25 25 25 23 22 21 21 20 21 21 21 21 21 21 21 21 21 22 23 23 24 24 25 26 26 27 27 27 27 27 27 27 27 28 28 28 29 29 30 31
Wind_Direction
229 225 223 221 218 216 216 217 218 218 220 220 223 222 222 222 220 221 220 219 217 224 219 217 217 213 203 201 186 161 88 57 45 40 33 34 35 33 31 30 29 30 30 30
231 226 222 220 218 216 215 217 219 217 216 218 221 221 220 220 221 222 221 221 220 222 217 215 215 210 199 197 186 171 133 86 66 52 43 41 41 38 35 34 36 35 35 35
237 233 225 220 218 216 216 218 218 217 217 219 217 217 220 221 221 221 219 221 223 222 217 215 211 203 197 196 195 182 155 121 90 65 54 51 50 42 40 39 39 39 40 41
237 234 229 222 220 218 216 217 216 216 214 214 215 217 218 221 221 220 221 221 222 218 213 210 207 204 199 197 194 180 163 139 111 82 69 63 57 50 46 44 43 42 43 44
238 229 225 221 217 215 214 213 213 215 217 217 216 219 217 220 220 218 218 219 217 215 216 213 211 208 201 198 190 179 169 153 133 104 84 74 66 55 49 47 46 46 45 45
230 225 222 219 213 212 211 211 209 212 216 217 214 220 221 218 216 217 218 218 220 220 221 219 215 210 201 198 192 187 181 171 159 136 106 89 72 58 52 48 46 48 46 46
212 217 218 217 212 213 211 206 207 213 217 217 215 221 223 222 220 218 217 219 222 222 221 217 212 207 202 201 197 195 191 185 177 166 146 115 81 60 52 47 46 47 46 45
223 219 213 212 213 210 205 203 204 211 217 218 221 227 222 225 223 219 219 221 220 220 220 217 211 209 207 203 200 200 196 193 190 190 184 160 105 60 47 44 43 44 42 40
226 222 212 210 209 203 203 205 207 209 213 216 225 229 228 225 224 221 221 222 219 219 219 213 211 212 210 205 203 203 200 200 200 201 202 196 167 67 39 35 34 37 35 34
222 226 212 207 209 207 203 205 207 209 211 213 219 226 228 225 225 223 221 224 220 217 216 212 212 213 209 206 205 205 204 205 208 209 212 213 213 237 354 9 15 20 24 28
219 228 215 211 210 210 207 209 210 208 211 211 214 217 219 223 219 217 220 220 220 215 210 210 212 212 209 208 209 208 208 210 213 216 220 222 228 241 277 317 347 0 7 13
217 216 218 211 212 212 210 212 211 207 203 207 212 204 210 219 218 218 219 217 214 212 211 212 215 216 213 211 213 212 212 214 217 221 225 229 234 241 257 285 316 336 347 357
224 220 217 214 215 212 213 212 211 211 207 206 216 200 207 209 210 214 215 214 212 210 212 215 217 216 214 213 215 215 214 216 219 223 228 232 236 241 251 268 293 316 326 338
229 221 225 228 226 221 218 214 213 210 209 208 215 207 211 211 214 215 217 215 213 213 215 219 218 216 215 215 217 217 218 220 222 226 231 235 238 243 251 262 277 298 311 323
228 222 223 231 244 243 226 217 213 210 211 209 208 205 208 218 222 224 220 216 216 217 220 222 221 219 219 218 218 219 221 223 226 230 235 238 240 245 252 260 271 284 298 310
227 222 223 231 243 244 235 230 227 214 213 215 219 215 219 223 224 225 222 221 221 223 224 225 225 222 222 220 220 220 222 225 228 231 236 239 243 248 254 261 269 278 289 298
231 229 225 230 232 240 242 237 230 225 223 225 225 224 230 233 230 229 227 226 227 225 225 225 226 226 226 225 223 223 225 227 229 233 238 241 246 251 256 261 268 276 283 289
238 237 233 231 231 243 243 241 237 232 229 229 228 228 231 235 235 233 232 231 229 229 229 228 228 226 226 227 226 227 228 229 231 236 241 244 248 253 257 262 268 275 280 286
237 234 233 233 234 239 245 249 245 236 233 230 230 231 232 236 237 235 233 232 231 231 231 230 229 227 226 227 229 230 232 233 235 239 243 247 251 255 258 263 268 274 279 284
239 237 234 233 233 239 244 246 242 241 238 231 230 231 234 236 236 235 234 233 232 232 232 232 231 231 230 230 231 233 235 236 238 241 244 249 253 256 260 264 268 273 277 282
245 240 237 236 237 239 242 243 242 241 240 235 234 232 235 236 237 236 236 235 232 234 234 234 233 233 232 233 234 236 238 240 242 245 249 253 256 258 261 265 269 273 277 281
248 245 240 237 239 240 244 245 241 242 243 241 239 238 238 238 238 237 236 234 234 236 236 236 235 235 235 237 238 239 241 244 247 249 252 255 258 261 263 266 270 274 277 281
241 242 243 241 243 245 246 246 243 242 244 244 242 241 243 242 241 239 236 235 236 239 239 238 238 238 239 240 241 242 245 248 250 252 254 256 259 263 265 268 272 275 278 282
240 243 243 243 245 248 248 249 247 245 245 246 246 244 244 243 242 241 239 238 239 241 242 242 242 242 242 242 243 246 248 251 252 254 256 258 261 264 267 269 273 276 279 282
239 241 243 245 246 250 251 251 250 249 247 248 249 247 246 245 245 245 244 244 242 244 245 245 244 244 243 244 246 249 251 253 255 256 258 259 262 265 268 271 274 277 280 284
241 243 245 247 247 250 251 251 250 249 250 250 250 248 246 245 246 249 250 250 250 248 248 247 247 247 247 247 249 251 253 255 257 259 260 262 265 267 270 273 276 278 281 284
Height
5811 5814 5816 5819 5821 5825 5828 5831 5834 5838 5842 5846 5849 5852 5855 5858 5861 5863 5865 5868 5869 5872 5874 5875 5877 5878 5879 5880 5881 5881 5882 5882 5882 5881 5881 5880 5880 5878 5877 5875 5873 5871 5869 5867
5810 5811 5813 5815 5818 5822 5824 5827 5831 5835 5839 5843 5846 5849 5852 5856 5859 5861 5864 5866 5868 5870 5872 5873 5875 5877 5878 5880 5881 5881 5882 5882 5882 5882 5882 5881 5880 5879 5878 5876 5875 5873 5871 5868
5807 5810 5811 5813 5816 5819 5822 5825 5829 5832 5836 5839 5843 5847 5850 5853 5856 5859 5862 5864 5867 5869 5871 5872 5874 5876 5878 5879 5880 5881 5881 5882 5882 5882 5882 5882 5881 5881 5879 5878 5876 5874 5872 5870
5805 5807 5809 5812 5814 5817 5820 5823 5826 5829 5833 5837 5841 5844 5848 5850 5853 5857 5860 5862 5865 5867 5869 5871 5873 5875 5877 5878 5879 5880 5881 5882 5882 5883 5883 5883 5882 5882 5881 5879 5878 5876 5874 5872
5805 5806 5808 5810 5813 5815 5818 5821 5825 5828 5831 5835 5838 5842 5845 5848 5851 5855 5858 5861 5863 5866 5868 5870 5872 5874 5876 5877 5879 5880 5881 5882 5883 5883 5883 5883 5883 5883 5882 5881 5880 5878 5876 5874
5804 5806 5807 5809 5811 5814 5817 5820 5823 5826 5829 5833 5836 5840 5842 5845 5849 5853 5856 5859 5861 5864 5866 5868 5871 5873 5875 5876 5878 5880 5881 5882 5883 5883 5884 5884 5884 5884 5883 5882 5881 5880 5878 5877
5804 5806 5807 5808 5811 5813 5816 5819 5823 5825 5828 5831 5834 5837 5841 5844 5847 5850 5854 5857 5859 5861 5864 5867 5869 5871 5873 5875 5877 5879 5880 5882 5883 5883 5884 5884 5885 5884 5884 5883 5883 5881 5880 5879
5804 5806 5807 5808 5811 5812 5815 5819 5823 5825 5827 5830 5832 5835 5839 5842 5844 5848 5851 5854 5857 5859 5862 5865 5867 5870 5872 5874 5876 5878 5880 5881 5882 5883 5884 5884 5885 5885 5885 5884 5884 5883 5882 5880
5804 5806 5807 5808 5810 5812 5815 5817 5820 5823 5825 5828 5831 5834 5837 5839 5842 5846 5849 5851 5855 5857 5860 5863 5866 5868 5871 5873 5875 5877 5879 5880 5882 5883 5884 5884 5885 5885 5885 5885 5884 5883 5883 5882
5804 5805 5806 5808 5810 5812 5814 5816 5818 5821 5824 5826 5829 5832 5835 5837 5841 5844 5847 5849 5852 5855 5858 5861 5863 5866 5869 5871 5873 5875 5877 5879 5881 5882 5883 5884 5885 5885 5885 5885 5885 5884 5883 5883
5805 5806 5807 5808 5810 5811 5814 5816 5818 5820 5822 5825 5827 5832 5833 5835 5838 5841 5844 5846 5850 5853 5856 5859 5862 5864 5867 5869 5871 5873 5876 5878 5880 5881 5882 5883 5884 5885 5885 5885 5885 5884 5884 5883
5804 5806 5806 5808 5809 5810 5812 5814 5817 5819 5821 5823 5824 5830 5831 5834 5836 5839 5842 5845 5847 5851 5854 5857 5859 5862 5865 5867 5870 5872 5874 5876 5878 5880 5881 5882 5883 5884 5884 5884 5884 5884 5883 5883
5804 5805 5806 5807 5810 5811 5812 5813 5816 5818 5819 5821 5823 5828 5829 5831 5834 5837 5840 5843 5846 5849 5852 5854 5857 5859 5862 5865 5867 5870 5872 5874 5876 5878 5880 5881 5882 5883 5883 5883 5884 5883 5883 5882
5804 5804 5806 5807 5808 5809 5811 5813 5815 5817 5818 5820 5822 5825 5828 5830 5833 5836 5839 5841 5844 5847 5849 5852 5855 5857 5860 5862 5865 5867 5870 5872 5874 5876 5878 5879 5880 5881 5882 5882 5882 5882 5882 5882
5802 5804 5804 5805 5807 5808 5810 5812 5814 5816 5818 5819 5821 5823 5826 5829 5831 5834 5836 5839 5842 5844 5847 5850 5852 5854 5857 5860 5862 5865 5867 5869 5872 5874 5875 5877 5878 5879 5880 5880 5881 5881 5881 5880
5800 5802 5803 5805 5806 5807 5808 5810 5813 5815 5816 5818 5820 5823 5825 5827 5829 5831 5834 5837 5839 5842 5844 5847 5849 5852 5854 5857 5859 5862 5864 5867 5869 5871 5873 5874 5876 5877 5877 5878 5879 5879 5879 5879
5798 5800 5802 5803 5804 5806 5808 5809 5811 5813 5815 5817 5819 5822 5823 5825 5827 5829 5831 5834 5836 5839 5842 5844 5847 5849 5851 5854 5856 5859 5862 5864 5866 5868 5870 5871 5873 5874 5875 5876 5876 5876 5876 5876
5796 5798 5799 5801 5803 5804 5808 5807 5809 5810 5812 5814 5816 5818 5820 5822 5824 5827 5829 5831 5834 5836 5839 5841 5843 5846 5848 5851 5853 5856 5858 5861 5863 5865 5867 5868 5870 5871 5872 5872 5873 5873 5873 5873
5794 5796 5797 5799 5800 5802 5804 5805 5806 5808 5810 5812 5814 5816 5818 5820 5822 5824 5826 5828 5831 5833 5835 5838 5840 5843 5845 5848 5850 5853 5855 5857 5859 5861 5863 5865 5866 5867 5868 5869 5869 5870 5870 5870
5791 5793 5795 5796 5798 5800 5802 5802 5804 5806 5807 5809 5810 5813 5815 5817 5819 5821 5823 5825 5827 5830 5832 5835 5837 5839 5842 5844 5847 5849 5851 5854 5856 5858 5859 5861 5862 5863 5864 5865 5865 5866 5866 5866
5788 5790 5792 5793 5795 5796 5798 5799 5802 5804 5805 5806 5808 5809 5811 5813 5815 5818 5819 5822 5824 5826 5829 5831 5834 5836 5838 5841 5843 5845 5848 5850 5852 5853 5855 5856 5858 5859 5860 5860 5861 5861 5861 5861
5784 5786 5788 5790 5791 5794 5794 5796 5798 5799 5800 5802 5804 5806 5808 5809 5811 5814 5816 5818 5820 5823 5825 5827 5830 5832 5834 5836 5839 5841 5843 5845 5847 5849 5850 5852 5853 5854 5855 5855 5856 5856 5856 5856
5780 5782 5784 5786 5789 5789 5790 5791 5793 5795 5796 5798 5800 5802 5804 5806 5808 5810 5812 5814 5816 5818 5821 5823 5825 5827 5830 5832 5834 5836 5838 5840 5842 5843 5845 5846 5847 5848 5849 5850 5850 5850 5850 5850
5775 5777 5779 5781 5783 5784 5785 5787 5789 5791 5792 5794 5796 5798 5800 5802 5803 5805 5807 5809 5811 5813 5816 5818 5820 5822 5824 5826 5828 5831 5833 5834 5836 5838 5839 5840 5841 5842 5843 5843 5844 5844 5843 5843
5770 5771 5774 5776 5778 5779 5780 5782 5784 5786 5788 5790 5791 5793 5795 5797 5799 5801 5803 5805 5806 5808 5810 5812 5814 5816 5818 5821 5823 5824 5826 5828 5830 5831 5832 5833 5835 5835 5836 5836 5836 5836 5836 5835
5764 5766 5768 5770 5772 5773 5775 5776 5778 5780 5782 5784 5786 5788 5790 5792 5793 5795 5797 5799 5801 5803 5804 5806 5808 5810 5812 5814 5816 5818 5820 5821 5823 5824 5825 5826 5827 5828 5828 5829 5829 5828 5828 5827